Location: Chervonnoye
(48.6000°N, 34.4000°E)
Time: 07:10:36
(UTC+00:00)

KAITUO 1B - Pass Details

Date: 01 December 2021
Orbit: 486 x 507 km, 97.4° (Epoch: 18 January)

Event Time Altitude Azimuth Distance (km) Brightness Sun altitude
Rises 16:28:01 0° 211° (SSW) 2,594 ? -25.4°
Reaches altitude 10° 16:30:55 10° 237° (WSW) 1,721 ? -25.9°
Maximum altitude 16:32:57 14° 270° (W) 1,483 ? -26.2°
Drops below altitude 10° 16:35:01 10° 304° (NW) 1,736 ? -26.6°
Sets 16:37:59 0° 330° (NNW) 2,632 ? -27.1°
